TimeEST,TemperatureF,Dew PointF,Humidity,Sea Level PressureIn,VisibilityMPH,Wind Direction,Wind SpeedMPH,Gust SpeedMPH,PrecipitationIn,Events,Conditions,WindDirDegrees,DateUTC
12:55 AM,40.5,31.6,71,29.78,10.0,SW,15.0,20.7,N/A,,Scattered Clouds,220,2012-12-19 05:55:00
1:55 AM,39.2,31.3,73,29.80,10.0,SW,13.8,-,N/A,,Scattered Clouds,220,2012-12-19 06:55:00
2:21 AM,41.0,32.0,70,29.82,10.0,SW,11.5,-,N/A,,Mostly Cloudy,220,2012-12-19 07:21:00
2:55 AM,41.5,32.0,69,29.84,10.0,SW,11.5,-,N/A,,Overcast,230,2012-12-19 07:55:00
3:55 AM,42.1,32.0,67,29.87,10.0,West,11.5,-,N/A,,Overcast,260,2012-12-19 08:55:00
4:55 AM,40.5,32.2,72,29.90,10.0,West,12.7,-,N/A,,Overcast,260,2012-12-19 09:55:00
5:34 AM,41.0,32.0,70,29.92,10.0,WSW,9.2,-,N/A,,Overcast,250,2012-12-19 10:34:00
5:55 AM,39.9,31.6,72,29.93,10.0,WSW,9.2,-,N/A,,Overcast,250,2012-12-19 10:55:00
6:20 AM,39.2,32.0,75,29.96,10.0,WSW,9.2,-,N/A,,Overcast,250,2012-12-19 11:20:00
6:47 AM,39.2,32.0,75,29.97,10.0,WSW,11.5,-,N/A,,Overcast,250,2012-12-19 11:47:00
6:55 AM,39.2,31.3,73,29.98,10.0,WSW,8.1,-,N/A,,Overcast,250,2012-12-19 11:55:00
7:40 AM,37.4,32.0,81,30.00,10.0,West,6.9,-,N/A,,Mostly Cloudy,260,2012-12-19 12:40:00
7:55 AM,36.3,29.8,77,30.00,10.0,WSW,4.6,-,N/A,,Scattered Clouds,250,2012-12-19 12:55:00
8:34 AM,35.6,30.2,81,30.02,10.0,West,3.5,-,N/A,,Mostly Cloudy,270,2012-12-19 13:34:00
8:55 AM,37.9,30.4,74,30.03,10.0,Calm,Calm,-,N/A,,Mostly Cloudy,0,2012-12-19 13:55:00
9:55 AM,39.6,31.6,73,30.07,6.0,SW,6.9,-,N/A,,Overcast,230,2012-12-19 14:55:00
10:55 AM,41.4,31.5,68,30.07,10.0,West,5.8,-,N/A,,Overcast,260,2012-12-19 15:55:00
11:55 AM,42.8,31.6,65,30.07,10.0,WNW,4.6,-,N/A,,Overcast,300,2012-12-19 16:55:00
12:55 PM,43.3,31.5,63,30.06,10.0,NNE,3.5,-,N/A,,Overcast,20,2012-12-19 17:55:00
1:55 PM,44.8,32.0,61,30.08,10.0,Calm,Calm,-,N/A,,Overcast,0,2012-12-19 18:55:00
2:55 PM,45.1,31.1,58,30.07,10.0,Calm,Calm,-,N/A,,Overcast,0,2012-12-19 19:55:00
3:55 PM,45.1,31.5,59,30.08,10.0,North,3.5,-,N/A,,Overcast,360,2012-12-19 20:55:00
4:55 PM,43.3,32.7,66,30.09,10.0,NE,5.8,-,N/A,,Mostly Cloudy,40,2012-12-19 21:55:00
5:55 PM,40.3,32.0,72,30.09,10.0,NE,9.2,-,N/A,,Overcast,40,2012-12-19 22:55:00
6:55 PM,41.4,32.4,70,30.11,10.0,SE,3.5,-,N/A,,Overcast,130,2012-12-19 23:55:00
7:55 PM,42.3,32.5,68,30.09,10.0,East,5.8,-,N/A,,Overcast,100,2012-12-20 00:55:00
8:55 PM,42.3,32.2,67,30.08,10.0,East,8.1,-,N/A,,Overcast,100,2012-12-20 01:55:00
9:55 PM,42.1,31.6,67,30.06,10.0,East,9.2,-,N/A,,Overcast,100,2012-12-20 02:55:00
10:55 PM,42.3,32.0,67,30.04,10.0,ESE,9.2,-,N/A,,Overcast,110,2012-12-20 03:55:00
11:55 PM,42.6,31.6,65,30.01,10.0,East,12.7,-,N/A,,Overcast,100,2012-12-20 04:55:00